Year,Month,Day,Hour,Minute,Value (Times are PST for temperature in C)
2016,11,22,00,00,5.50
2016,11,22,00,01,5.50
2016,11,22,00,02,5.50
2016,11,22,00,03,5.50
2016,11,22,00,04,5.50
2016,11,22,00,05,5.50
2016,11,22,00,06,5.60
2016,11,22,00,07,5.60
2016,11,22,00,08,5.60
2016,11,22,00,09,5.60
2016,11,22,00,10,5.60
2016,11,22,00,11,5.60
2016,11,22,00,12,5.60
2016,11,22,00,13,5.60
2016,11,22,00,14,5.60
2016,11,22,00,15,5.60
2016,11,22,00,16,5.60
2016,11,22,00,17,5.70
2016,11,22,00,18,5.70
2016,11,22,00,19,5.70
2016,11,22,00,20,5.70
2016,11,22,00,21,5.70
2016,11,22,00,22,5.70
2016,11,22,00,23,5.70
2016,11,22,00,24,5.70
2016,11,22,00,25,5.70
2016,11,22,00,26,5.70
2016,11,22,00,27,5.70
2016,11,22,00,28,5.70
2016,11,22,00,29,5.70
2016,11,22,00,30,5.60
2016,11,22,00,31,5.60
2016,11,22,00,32,5.60
2016,11,22,00,33,5.60
2016,11,22,00,34,5.70
2016,11,22,00,35,5.70
2016,11,22,00,36,5.70
2016,11,22,00,37,5.70
2016,11,22,00,38,5.70
2016,11,22,00,39,5.70
2016,11,22,00,40,5.70
2016,11,22,00,41,5.70
2016,11,22,00,42,5.70
2016,11,22,00,43,5.70
2016,11,22,00,44,5.70
2016,11,22,00,45,5.70
2016,11,22,00,46,5.70
2016,11,22,00,47,5.70
2016,11,22,00,48,5.70
2016,11,22,00,49,5.70
2016,11,22,00,50,5.70
2016,11,22,00,51,5.80
2016,11,22,00,52,5.80
2016,11,22,00,53,5.80
2016,11,22,00,54,5.80
2016,11,22,00,55,5.90
2016,11,22,00,56,5.90
2016,11,22,00,57,5.90
2016,11,22,00,58,5.90
2016,11,22,00,59,6.00
2016,11,22,01,00,6.00
2016,11,22,01,01,6.00
2016,11,22,01,02,6.00
2016,11,22,01,03,6.00
2016,11,22,01,04,6.00
2016,11,22,01,05,6.00
2016,11,22,01,06,6.00
2016,11,22,01,07,6.10
2016,11,22,01,08,6.10
2016,11,22,01,09,6.10
2016,11,22,01,10,6.10
2016,11,22,01,11,6.10
2016,11,22,01,12,6.10
2016,11,22,01,13,6.20
2016,11,22,01,14,6.20
2016,11,22,01,15,6.20
2016,11,22,01,16,6.20
2016,11,22,01,17,6.20
2016,11,22,01,18,6.20
2016,11,22,01,19,6.20
2016,11,22,01,20,6.20
2016,11,22,01,21,6.20
2016,11,22,01,22,6.20
2016,11,22,01,23,6.20
2016,11,22,01,24,6.20
2016,11,22,01,25,6.20
2016,11,22,01,26,6.30
2016,11,22,01,27,6.30
2016,11,22,01,28,6.30
2016,11,22,01,29,6.30
2016,11,22,01,30,6.30
2016,11,22,01,31,6.40
2016,11,22,01,32,6.40
2016,11,22,01,33,6.40
2016,11,22,01,34,6.40
2016,11,22,01,35,6.40
2016,11,22,01,36,6.40
2016,11,22,01,37,6.50
2016,11,22,01,38,6.50
2016,11,22,01,39,6.50
2016,11,22,01,40,6.50
2016,11,22,01,41,6.50
2016,11,22,01,42,6.60
2016,11,22,01,43,6.60
2016,11,22,01,44,6.60
2016,11,22,01,45,6.60
2016,11,22,01,46,6.60
2016,11,22,01,47,6.60
2016,11,22,01,48,6.60
2016,11,22,01,49,6.60
2016,11,22,01,50,6.60
2016,11,22,01,51,6.60
2016,11,22,01,52,6.60
2016,11,22,01,53,6.60
2016,11,22,01,54,6.60
2016,11,22,01,55,6.60
2016,11,22,01,56,6.60
2016,11,22,01,57,6.70
2016,11,22,01,58,6.70
2016,11,22,01,59,6.70
2016,11,22,02,00,6.70
2016,11,22,02,01,6.70
2016,11,22,02,02,6.70
2016,11,22,02,03,6.70
2016,11,22,02,04,6.60
2016,11,22,02,05,6.60
2016,11,22,02,06,6.60
2016,11,22,02,07,6.60
2016,11,22,02,08,6.60
2016,11,22,02,09,6.60
2016,11,22,02,10,6.70
2016,11,22,02,11,6.70
2016,11,22,02,12,6.70
2016,11,22,02,13,6.70
2016,11,22,02,14,6.70
2016,11,22,02,15,6.70
2016,11,22,02,16,6.70
2016,11,22,02,17,6.70
2016,11,22,02,18,6.70
2016,11,22,02,19,6.70
2016,11,22,02,20,6.70
2016,11,22,02,21,6.70
2016,11,22,02,22,6.70
2016,11,22,02,23,6.70
2016,11,22,02,24,6.70
2016,11,22,02,25,6.70
2016,11,22,02,26,6.70
2016,11,22,02,27,6.70
2016,11,22,02,28,6.70
2016,11,22,02,29,6.70
2016,11,22,02,30,6.70
2016,11,22,02,31,6.70
2016,11,22,02,32,6.70
2016,11,22,02,33,6.70
2016,11,22,02,34,6.70
2016,11,22,02,35,6.70
2016,11,22,02,36,6.70
2016,11,22,02,37,6.70
2016,11,22,02,38,6.70
2016,11,22,02,39,6.70
2016,11,22,02,40,6.70
2016,11,22,02,41,6.70
2016,11,22,02,42,6.70
2016,11,22,02,43,6.70
2016,11,22,02,44,6.70
2016,11,22,02,45,6.70
2016,11,22,02,46,6.70
2016,11,22,02,47,6.70
2016,11,22,02,48,6.70
2016,11,22,02,49,6.70
2016,11,22,02,50,6.70
2016,11,22,02,51,6.70
2016,11,22,02,52,6.70
2016,11,22,02,53,6.70
2016,11,22,02,54,6.70
2016,11,22,02,55,6.70
2016,11,22,02,56,6.70
2016,11,22,02,57,6.70
2016,11,22,02,58,6.70
2016,11,22,02,59,6.70
2016,11,22,03,00,6.70
2016,11,22,03,01,6.70
2016,11,22,03,02,6.70
2016,11,22,03,03,6.70
2016,11,22,03,04,6.70
2016,11,22,03,05,6.70
2016,11,22,03,06,6.70
2016,11,22,03,07,6.70
2016,11,22,03,08,6.70
2016,11,22,03,09,6.70
2016,11,22,03,10,6.70
2016,11,22,03,11,6.70
2016,11,22,03,12,6.70
2016,11,22,03,13,6.70
2016,11,22,03,14,6.70
2016,11,22,03,15,6.70
2016,11,22,03,16,6.70
2016,11,22,03,17,6.70
2016,11,22,03,18,6.70
2016,11,22,03,19,6.70
2016,11,22,03,20,6.70
2016,11,22,03,21,6.70
2016,11,22,03,22,6.70
2016,11,22,03,23,6.70
2016,11,22,03,24,6.70
2016,11,22,03,25,6.70
2016,11,22,03,26,6.70
2016,11,22,03,27,6.70
2016,11,22,03,28,6.70
2016,11,22,03,29,6.60
2016,11,22,03,30,6.60
2016,11,22,03,31,6.60
2016,11,22,03,32,6.60
2016,11,22,03,33,6.60
2016,11,22,03,34,6.60
2016,11,22,03,35,6.60
2016,11,22,03,36,6.60
2016,11,22,03,37,6.60
2016,11,22,03,38,6.60
2016,11,22,03,39,6.60
2016,11,22,03,40,6.60
2016,11,22,03,41,6.60
2016,11,22,03,42,6.60
2016,11,22,03,43,6.60
2016,11,22,03,44,6.60
2016,11,22,03,45,6.60
2016,11,22,03,46,6.60
2016,11,22,03,47,6.50
2016,11,22,03,48,6.50
2016,11,22,03,49,6.50
2016,11,22,03,50,6.50
2016,11,22,03,51,6.50
2016,11,22,03,52,6.40
2016,11,22,03,53,6.40
2016,11,22,03,54,6.40
2016,11,22,03,55,6.40
2016,11,22,03,56,6.40
2016,11,22,03,57,6.40
2016,11,22,03,58,6.40
2016,11,22,03,59,6.30
2016,11,22,04,00,6.30
2016,11,22,04,01,6.30
2016,11,22,04,02,6.30
2016,11,22,04,03,6.30
2016,11,22,04,04,6.30
2016,11,22,04,05,6.30
2016,11,22,04,06,6.30
2016,11,22,04,07,6.20
2016,11,22,04,08,6.20
2016,11,22,04,09,6.20
2016,11,22,04,10,6.20
2016,11,22,04,11,6.20
2016,11,22,04,12,6.20
2016,11,22,04,13,6.20
2016,11,22,04,14,6.20
2016,11,22,04,15,6.10
2016,11,22,04,16,6.10
2016,11,22,04,17,6.10
2016,11,22,04,18,6.10
2016,11,22,04,19,6.10
2016,11,22,04,20,6.10
2016,11,22,04,21,6.10
2016,11,22,04,22,6.00
2016,11,22,04,23,6.00
2016,11,22,04,24,6.00
2016,11,22,04,25,6.00
2016,11,22,04,26,5.90
2016,11,22,04,27,5.90
2016,11,22,04,28,5.90
2016,11,22,04,29,5.90
2016,11,22,04,30,5.90
2016,11,22,04,31,5.90
2016,11,22,04,32,5.90
2016,11,22,04,33,5.90
2016,11,22,04,34,5.90
2016,11,22,04,35,5.80
2016,11,22,04,36,5.80
2016,11,22,04,37,5.80
2016,11,22,04,38,5.80
2016,11,22,04,39,5.80
2016,11,22,04,40,5.80
2016,11,22,04,41,5.80
2016,11,22,04,42,5.80
2016,11,22,04,43,5.80
2016,11,22,04,44,5.80
2016,11,22,04,45,5.80
2016,11,22,04,46,5.70
2016,11,22,04,47,5.70
2016,11,22,04,48,5.70
2016,11,22,04,49,5.70
2016,11,22,04,50,5.70
2016,11,22,04,51,5.70
2016,11,22,04,52,5.60
2016,11,22,04,53,5.60
2016,11,22,04,54,5.60
2016,11,22,04,55,5.60
2016,11,22,04,56,5.60
2016,11,22,04,57,5.50
2016,11,22,04,58,5.50
2016,11,22,04,59,5.50
2016,11,22,05,00,5.40
2016,11,22,05,01,5.40
2016,11,22,05,02,5.40
2016,11,22,05,03,5.40
2016,11,22,05,04,5.40
2016,11,22,05,05,5.30
2016,11,22,05,06,5.30
2016,11,22,05,07,5.30
2016,11,22,05,08,5.30
2016,11,22,05,09,5.30
2016,11,22,05,10,5.30
2016,11,22,05,11,5.30
2016,11,22,05,12,5.20
2016,11,22,05,13,5.20
2016,11,22,05,14,5.20
2016,11,22,05,15,5.20
2016,11,22,05,16,5.20
2016,11,22,05,17,5.20
2016,11,22,05,18,5.10
2016,11,22,05,19,5.10
2016,11,22,05,20,5.10
2016,11,22,05,21,5.10
2016,11,22,05,22,5.10
2016,11,22,05,23,5.10
2016,11,22,05,24,5.10
2016,11,22,05,25,5.00
2016,11,22,05,26,5.00
2016,11,22,05,27,5.00
2016,11,22,05,28,5.00
2016,11,22,05,29,5.00
2016,11,22,05,30,5.00
2016,11,22,05,31,5.00
2016,11,22,05,32,5.00
2016,11,22,05,33,5.00
2016,11,22,05,34,5.00
2016,11,22,05,35,5.00
2016,11,22,05,36,5.00
2016,11,22,05,37,5.00
2016,11,22,05,38,5.00
2016,11,22,05,39,5.10
2016,11,22,05,40,5.10
2016,11,22,05,41,5.10
2016,11,22,05,42,5.10
2016,11,22,05,43,5.20
2016,11,22,05,44,5.20
2016,11,22,05,45,5.20
2016,11,22,05,46,5.20
2016,11,22,05,47,5.20
2016,11,22,05,48,5.20
2016,11,22,05,49,5.20
2016,11,22,05,50,5.20
2016,11,22,05,51,5.20
2016,11,22,05,52,5.20
2016,11,22,05,53,5.20
2016,11,22,05,54,5.20
2016,11,22,05,55,5.20
2016,11,22,05,56,5.30
2016,11,22,05,57,5.30
2016,11,22,05,58,5.30
2016,11,22,05,59,5.30
2016,11,22,06,00,5.30
2016,11,22,06,01,5.30
2016,11,22,06,02,5.30
2016,11,22,06,03,5.30
2016,11,22,06,04,5.30
2016,11,22,06,05,5.30
2016,11,22,06,06,5.30
2016,11,22,06,07,5.30
2016,11,22,06,08,5.30
2016,11,22,06,09,5.30
2016,11,22,06,10,5.30
2016,11,22,06,11,5.30
2016,11,22,06,12,5.30
2016,11,22,06,13,5.30
2016,11,22,06,14,5.30
2016,11,22,06,15,5.30
2016,11,22,06,16,5.30
2016,11,22,06,17,5.30
2016,11,22,06,18,5.30
2016,11,22,06,19,5.30
2016,11,22,06,20,5.30
2016,11,22,06,21,5.30
2016,11,22,06,22,5.30
2016,11,22,06,23,5.30
2016,11,22,06,24,5.30
2016,11,22,06,25,5.30
2016,11,22,06,26,5.30
2016,11,22,06,27,5.30
2016,11,22,06,28,5.30
2016,11,22,06,29,5.30
2016,11,22,06,30,5.30
2016,11,22,06,31,5.30
2016,11,22,06,32,5.30
2016,11,22,06,33,5.40
2016,11,22,06,34,5.40
2016,11,22,06,35,5.40
2016,11,22,06,36,5.40
2016,11,22,06,37,5.40
2016,11,22,06,38,5.40
2016,11,22,06,39,5.40
2016,11,22,06,40,5.40
2016,11,22,06,41,5.40
2016,11,22,06,42,5.40
2016,11,22,06,43,5.40
2016,11,22,06,44,5.40
2016,11,22,06,45,5.50
2016,11,22,06,46,5.50
2016,11,22,06,47,5.50
2016,11,22,06,48,5.50
2016,11,22,06,49,5.50
2016,11,22,06,50,5.50
2016,11,22,06,51,5.50
2016,11,22,06,52,5.50
2016,11,22,06,53,5.50
2016,11,22,06,54,5.50
2016,11,22,06,55,5.50
2016,11,22,06,56,5.50
2016,11,22,06,57,5.50
2016,11,22,06,58,5.50
2016,11,22,06,59,5.50
2016,11,22,07,00,5.40
2016,11,22,07,01,5.40
2016,11,22,07,02,5.40
2016,11,22,07,03,5.40
2016,11,22,07,04,5.40
2016,11,22,07,05,5.40
2016,11,22,07,06,5.40
2016,11,22,07,07,5.40
2016,11,22,07,08,5.40
2016,11,22,07,09,5.40
2016,11,22,07,10,5.40
2016,11,22,07,11,5.40
2016,11,22,07,12,5.40
2016,11,22,07,13,5.40
2016,11,22,07,14,5.40
2016,11,22,07,15,5.40
2016,11,22,07,16,5.40
2016,11,22,07,17,5.40
2016,11,22,07,18,5.40
2016,11,22,07,19,5.40
2016,11,22,07,20,5.50
2016,11,22,07,21,5.50
2016,11,22,07,22,5.50
2016,11,22,07,23,5.50
2016,11,22,07,24,5.50
2016,11,22,07,25,5.50
2016,11,22,07,26,5.50
2016,11,22,07,27,5.50
2016,11,22,07,28,5.50
2016,11,22,07,29,5.50
2016,11,22,07,30,5.50
2016,11,22,07,31,5.50
2016,11,22,07,32,5.50
2016,11,22,07,33,5.50
2016,11,22,07,34,5.50
2016,11,22,07,35,5.50
2016,11,22,07,36,5.50
2016,11,22,07,37,5.50
2016,11,22,07,38,5.50
2016,11,22,07,39,5.50
2016,11,22,07,40,5.50
2016,11,22,07,41,5.50
2016,11,22,07,42,5.50
2016,11,22,07,43,5.50
2016,11,22,07,44,5.50
2016,11,22,07,45,5.50
2016,11,22,07,46,5.50
2016,11,22,07,47,5.50
2016,11,22,07,48,5.50
2016,11,22,07,49,5.50
2016,11,22,07,50,5.50
2016,11,22,07,51,5.50
2016,11,22,07,52,5.50
2016,11,22,07,53,5.50
2016,11,22,07,54,5.50
2016,11,22,07,55,5.50
2016,11,22,07,56,5.50
2016,11,22,07,57,5.50
2016,11,22,07,58,5.50
2016,11,22,07,59,5.50
2016,11,22,08,00,5.50
2016,11,22,08,01,5.50
2016,11,22,08,02,5.50
2016,11,22,08,03,5.50
2016,11,22,08,04,5.50
2016,11,22,08,05,5.50
2016,11,22,08,06,5.50
2016,11,22,08,07,5.50
2016,11,22,08,08,5.60
2016,11,22,08,09,5.60
2016,11,22,08,10,5.60
2016,11,22,08,11,5.60
2016,11,22,08,12,5.60
2016,11,22,08,13,5.60
2016,11,22,08,14,5.60
2016,11,22,08,15,5.60
2016,11,22,08,16,5.60
2016,11,22,08,17,5.60
2016,11,22,08,18,5.60
2016,11,22,08,19,5.70
2016,11,22,08,20,5.70
2016,11,22,08,21,5.70
2016,11,22,08,22,5.70
2016,11,22,08,23,5.70
2016,11,22,08,24,5.70
2016,11,22,08,25,5.70
2016,11,22,08,26,5.70
2016,11,22,08,27,5.80
2016,11,22,08,28,5.80
2016,11,22,08,29,5.80
2016,11,22,08,30,5.80
2016,11,22,08,31,5.80
2016,11,22,08,32,5.80
2016,11,22,08,33,5.80
2016,11,22,08,34,5.80
2016,11,22,08,35,5.80
2016,11,22,08,36,5.80
2016,11,22,08,37,5.80
2016,11,22,08,38,5.80
2016,11,22,08,39,5.80
2016,11,22,08,40,5.80
2016,11,22,08,41,5.80
2016,11,22,08,42,5.80
2016,11,22,08,43,5.80
2016,11,22,08,44,5.80
2016,11,22,08,45,5.80
2016,11,22,08,46,5.80
2016,11,22,08,47,5.80
2016,11,22,08,48,5.80
2016,11,22,08,49,5.80
2016,11,22,08,50,5.80
2016,11,22,08,51,5.80
2016,11,22,08,52,5.80
2016,11,22,08,53,5.80
2016,11,22,08,54,5.80
2016,11,22,08,55,5.80
2016,11,22,08,56,5.80
2016,11,22,08,57,5.80
2016,11,22,08,58,5.80
2016,11,22,08,59,5.80
2016,11,22,09,00,5.80
2016,11,22,09,01,5.80
2016,11,22,09,02,5.80
2016,11,22,09,03,5.80
2016,11,22,09,04,5.80
2016,11,22,09,05,5.80
2016,11,22,09,06,5.80
2016,11,22,09,07,5.80
2016,11,22,09,08,5.80
2016,11,22,09,09,5.80
2016,11,22,09,10,5.80
2016,11,22,09,11,5.80
2016,11,22,11,26,6.80
2016,11,22,11,27,6.80
2016,11,22,11,28,6.80
2016,11,22,11,29,6.70
2016,11,22,11,30,6.70
2016,11,22,11,31,6.70
2016,11,22,11,32,6.70
2016,11,22,11,33,6.70
2016,11,22,11,34,6.70
2016,11,22,11,35,6.70
2016,11,22,11,36,6.70
2016,11,22,11,37,6.70
2016,11,22,11,38,6.70
2016,11,22,11,39,6.70
2016,11,22,11,40,6.70
2016,11,22,11,41,6.70
2016,11,22,11,42,6.70
2016,11,22,11,43,6.70
2016,11,22,11,44,6.70
2016,11,22,11,45,6.70
2016,11,22,11,46,6.70
2016,11,22,11,47,6.70
2016,11,22,11,48,6.70
2016,11,22,11,49,6.70
2016,11,22,11,50,6.70
2016,11,22,11,51,6.70
2016,11,22,11,52,6.70
2016,11,22,11,53,6.70
2016,11,22,11,54,6.70
2016,11,22,11,55,6.70
2016,11,22,11,56,6.70
2016,11,22,11,57,6.70
2016,11,22,11,58,6.70
2016,11,22,11,59,6.70
2016,11,22,12,00,6.70
2016,11,22,12,01,6.70
2016,11,22,12,02,6.70
2016,11,22,12,03,6.70
2016,11,22,12,04,6.70
2016,11,22,12,05,6.60
2016,11,22,12,06,6.60
2016,11,22,12,07,6.60
2016,11,22,12,08,6.60
2016,11,22,12,09,6.60
2016,11,22,12,10,6.60
2016,11,22,12,11,6.60
2016,11,22,12,12,6.60
2016,11,22,12,13,6.60
2016,11,22,12,14,6.60
2016,11,22,12,15,6.60
2016,11,22,12,16,6.60
2016,11,22,12,17,6.60
2016,11,22,12,18,6.60
2016,11,22,12,19,6.60
2016,11,22,12,20,6.60
2016,11,22,12,21,6.60
2016,11,22,12,22,6.60
2016,11,22,12,23,6.60
2016,11,22,12,24,6.60
2016,11,22,12,25,6.60
2016,11,22,12,26,6.60
2016,11,22,12,27,6.60
2016,11,22,12,28,6.60
2016,11,22,12,29,6.70
2016,11,22,12,30,6.60
2016,11,22,12,31,6.60
2016,11,22,12,32,6.60
2016,11,22,12,33,6.60
2016,11,22,12,34,6.60
2016,11,22,12,35,6.60
2016,11,22,12,36,6.60
2016,11,22,12,37,6.60
2016,11,22,12,38,6.60
2016,11,22,12,39,6.60
2016,11,22,12,40,6.60
2016,11,22,12,41,6.60
2016,11,22,12,42,6.60
2016,11,22,12,43,6.60
2016,11,22,12,44,6.60
2016,11,22,12,45,6.60
2016,11,22,12,46,6.60
2016,11,22,12,47,6.60
2016,11,22,12,48,6.60
2016,11,22,12,49,6.60
2016,11,22,12,50,6.60
2016,11,22,12,51,6.60
2016,11,22,12,52,6.60
2016,11,22,12,53,6.70
2016,11,22,12,54,6.70
2016,11,22,12,55,6.70
2016,11,22,12,56,6.70
2016,11,22,12,57,6.70
2016,11,22,12,58,6.70
2016,11,22,12,59,6.70
2016,11,22,13,00,6.70
2016,11,22,13,01,6.70
2016,11,22,13,02,6.60
2016,11,22,13,03,6.60
2016,11,22,13,04,6.50
2016,11,22,13,05,6.40
2016,11,22,13,06,6.30
2016,11,22,13,07,6.20
2016,11,22,13,08,6.10
2016,11,22,13,09,6.00
2016,11,22,13,10,6.00
2016,11,22,13,11,5.90
2016,11,22,13,12,5.90
2016,11,22,13,13,5.80
2016,11,22,13,14,5.80
2016,11,22,13,15,5.70
2016,11,22,13,16,5.70
2016,11,22,13,17,5.70
2016,11,22,13,18,5.60
2016,11,22,13,19,5.60
2016,11,22,13,20,5.60
2016,11,22,13,21,5.60
2016,11,22,13,22,5.50
2016,11,22,13,23,5.50
2016,11,22,13,24,5.50
2016,11,22,13,25,5.50
2016,11,22,13,26,5.50
2016,11,22,13,27,5.50
2016,11,22,13,28,5.50
2016,11,22,13,29,5.50
2016,11,22,13,30,5.50
2016,11,22,13,31,5.60
2016,11,22,13,32,5.60
2016,11,22,13,33,5.60
2016,11,22,13,34,5.60
2016,11,22,13,35,5.60
2016,11,22,13,36,5.60
2016,11,22,13,37,5.60
2016,11,22,13,38,5.60
2016,11,22,13,39,5.60
2016,11,22,13,40,5.60
2016,11,22,13,41,5.60
2016,11,22,13,42,5.70
2016,11,22,13,43,5.70
2016,11,22,13,44,5.70
2016,11,22,13,45,5.80
2016,11,22,13,46,5.80
2016,11,22,13,47,5.80
2016,11,22,13,48,5.80
2016,11,22,13,49,5.80
2016,11,22,13,50,5.80
2016,11,22,13,51,5.80
2016,11,22,13,52,5.80
2016,11,22,13,53,5.80
2016,11,22,13,54,5.80
2016,11,22,13,55,5.80
2016,11,22,13,56,5.80
2016,11,22,13,57,5.80
2016,11,22,13,58,5.80
2016,11,22,13,59,5.80
2016,11,22,14,00,5.80
2016,11,22,14,01,5.80
2016,11,22,14,02,5.80
2016,11,22,14,03,5.80
2016,11,22,14,04,5.80
2016,11,22,14,05,5.80
2016,11,22,14,06,5.80
2016,11,22,14,07,5.80
2016,11,22,14,08,5.80
2016,11,22,14,09,5.80
2016,11,22,14,10,5.80
2016,11,22,14,11,5.80
2016,11,22,14,12,5.80
2016,11,22,14,13,5.80
2016,11,22,14,14,5.90
2016,11,22,14,15,5.90
2016,11,22,14,16,5.90
2016,11,22,14,17,5.90
2016,11,22,14,18,5.90
2016,11,22,14,19,5.90
2016,11,22,14,20,5.90
2016,11,22,14,21,5.90
2016,11,22,14,22,5.80
2016,11,22,14,23,5.80
2016,11,22,14,24,5.70
2016,11,22,14,25,5.70
2016,11,22,14,26,5.60
2016,11,22,14,27,5.60
2016,11,22,14,28,5.50
2016,11,22,14,29,5.50
2016,11,22,14,30,5.50
2016,11,22,14,31,5.50
2016,11,22,14,32,5.50
2016,11,22,14,33,5.50
2016,11,22,14,34,5.50
2016,11,22,14,35,5.50
2016,11,22,14,36,5.50
2016,11,22,14,37,5.50
2016,11,22,14,38,5.40
2016,11,22,14,39,5.40
2016,11,22,14,40,5.30
2016,11,22,14,41,5.30
2016,11,22,14,42,5.30
2016,11,22,14,43,5.30
2016,11,22,14,44,5.30
2016,11,22,14,45,5.30
2016,11,22,14,46,5.30
2016,11,22,14,47,5.30
2016,11,22,14,48,5.30
2016,11,22,14,49,5.30
2016,11,22,14,50,5.30
2016,11,22,14,51,5.30
2016,11,22,14,52,5.30
2016,11,22,14,53,5.30
2016,11,22,14,54,5.30
2016,11,22,14,55,5.30
2016,11,22,14,56,5.30
2016,11,22,14,57,5.30
2016,11,22,14,58,5.30
2016,11,22,14,59,5.30
2016,11,22,15,00,5.30
2016,11,22,15,01,5.30
2016,11,22,15,02,5.30
2016,11,22,15,03,5.30
2016,11,22,15,04,5.30
2016,11,22,15,05,5.20
2016,11,22,15,06,5.20
2016,11,22,15,07,5.20
2016,11,22,15,08,5.20
2016,11,22,15,09,5.20
2016,11,22,15,10,5.20
2016,11,22,15,11,5.20
2016,11,22,15,12,5.10
2016,11,22,15,13,5.10
2016,11,22,15,14,5.10
2016,11,22,15,15,5.10
2016,11,22,15,16,5.10
2016,11,22,15,17,5.10
2016,11,22,15,18,5.10
2016,11,22,15,19,5.10
2016,11,22,15,20,5.10
2016,11,22,15,21,5.10
2016,11,22,15,22,5.10
2016,11,22,15,23,5.10
2016,11,22,15,24,5.10
2016,11,22,15,25,5.10
2016,11,22,15,26,5.10
2016,11,22,15,27,5.10
2016,11,22,15,28,5.10
2016,11,22,15,29,5.10
2016,11,22,15,30,5.10
2016,11,22,15,31,5.10
2016,11,22,15,32,5.00
2016,11,22,15,33,5.00
2016,11,22,15,34,5.10
2016,11,22,15,35,5.10
2016,11,22,15,36,5.10
2016,11,22,15,37,5.10
2016,11,22,15,38,5.10
2016,11,22,15,39,5.10
2016,11,22,15,40,5.10
2016,11,22,15,41,5.10
2016,11,22,15,42,5.10
2016,11,22,15,43,5.10
2016,11,22,15,44,5.10
2016,11,22,15,45,5.10
2016,11,22,15,46,5.10
2016,11,22,15,47,5.10
2016,11,22,15,48,5.10
2016,11,22,15,49,5.10
2016,11,22,15,50,5.10
2016,11,22,15,51,5.10
2016,11,22,15,52,5.10
2016,11,22,15,53,5.10
2016,11,22,15,54,5.10
2016,11,22,15,55,5.10
2016,11,22,15,56,5.10
2016,11,22,15,57,5.10
2016,11,22,15,58,5.10
2016,11,22,15,59,5.10
2016,11,22,16,00,5.10
2016,11,22,16,01,5.10
2016,11,22,16,02,5.10
2016,11,22,16,03,5.10
2016,11,22,16,04,5.00
2016,11,22,16,05,5.00
2016,11,22,16,06,5.00
2016,11,22,16,07,5.00
2016,11,22,16,08,5.00
2016,11,22,16,09,5.00
2016,11,22,16,10,4.90
2016,11,22,16,11,4.90
2016,11,22,16,12,4.90
2016,11,22,16,13,4.90
2016,11,22,16,14,4.90
2016,11,22,16,15,4.90
2016,11,22,16,16,4.90
2016,11,22,16,17,4.90
2016,11,22,16,18,4.90
2016,11,22,16,19,4.90
2016,11,22,16,20,4.80
2016,11,22,16,21,4.80
2016,11,22,16,22,4.80
2016,11,22,16,23,4.80
2016,11,22,16,24,4.80
2016,11,22,16,25,4.80
2016,11,22,16,26,4.80
2016,11,22,16,27,4.80
2016,11,22,16,28,4.70
2016,11,22,16,29,4.70
2016,11,22,16,30,4.70
2016,11,22,16,31,4.70
2016,11,22,16,32,4.70
2016,11,22,16,33,4.70
2016,11,22,16,34,4.70
2016,11,22,16,35,4.70
2016,11,22,16,36,4.70
2016,11,22,16,37,4.70
2016,11,22,16,38,4.70
2016,11,22,16,39,4.70
2016,11,22,16,40,4.60
2016,11,22,16,41,4.60
2016,11,22,16,42,4.60
2016,11,22,16,43,4.60
2016,11,22,16,44,4.60
2016,11,22,16,45,4.60
2016,11,22,16,46,4.60
2016,11,22,16,47,4.60
2016,11,22,16,48,4.60
2016,11,22,16,49,4.60
2016,11,22,16,50,4.60
2016,11,22,16,51,4.60
2016,11,22,16,52,4.60
2016,11,22,16,53,4.60
2016,11,22,16,54,4.60
2016,11,22,16,55,4.60
2016,11,22,16,56,4.60
2016,11,22,16,57,4.60
2016,11,22,16,58,4.60
2016,11,22,16,59,4.60
2016,11,22,17,00,4.60
2016,11,22,17,01,4.60
2016,11,22,17,02,4.60
2016,11,22,17,03,4.60
2016,11,22,17,04,4.60
2016,11,22,17,05,4.60
2016,11,22,17,06,4.60
2016,11,22,17,07,4.60
2016,11,22,17,08,4.60
2016,11,22,17,09,4.60
2016,11,22,17,10,4.60
2016,11,22,17,11,4.60
2016,11,22,17,12,4.60
2016,11,22,17,13,4.60
2016,11,22,17,14,4.60
2016,11,22,17,15,4.60
2016,11,22,17,16,4.60
2016,11,22,17,17,4.60
2016,11,22,17,18,4.60
2016,11,22,17,19,4.60
2016,11,22,17,20,4.60
2016,11,22,17,21,4.60
2016,11,22,17,22,4.60
2016,11,22,17,23,4.60
2016,11,22,17,24,4.60
2016,11,22,17,25,4.60
2016,11,22,17,26,4.60
2016,11,22,17,27,4.60
2016,11,22,17,28,4.60
2016,11,22,17,29,4.60
2016,11,22,17,30,4.60
2016,11,22,17,31,4.60
2016,11,22,17,32,4.60
2016,11,22,17,33,4.60
2016,11,22,17,34,4.60
2016,11,22,17,35,4.60
2016,11,22,17,36,4.60
2016,11,22,17,37,4.60
2016,11,22,17,38,4.60
2016,11,22,17,39,4.60
2016,11,22,17,40,4.60
2016,11,22,17,41,4.60
2016,11,22,17,42,4.60
2016,11,22,17,43,4.60
2016,11,22,17,44,4.60
2016,11,22,17,45,4.60
2016,11,22,17,46,4.60
2016,11,22,17,47,4.60
2016,11,22,17,48,4.60
2016,11,22,17,49,4.60
2016,11,22,17,50,4.60
2016,11,22,17,51,4.60
2016,11,22,17,52,4.60
2016,11,22,17,53,4.60
2016,11,22,17,54,4.60
2016,11,22,17,55,4.60
2016,11,22,17,56,4.60
2016,11,22,17,57,4.60
2016,11,22,17,58,4.60
2016,11,22,17,59,4.60
2016,11,22,18,00,4.60
2016,11,22,18,01,4.60
2016,11,22,18,02,4.60
2016,11,22,18,03,4.60
2016,11,22,18,04,4.60
2016,11,22,18,05,4.60
2016,11,22,18,06,4.60
2016,11,22,18,07,4.60
2016,11,22,19,12,4.50
2016,11,22,19,13,4.50
2016,11,22,19,14,4.50
2016,11,22,19,15,4.50
2016,11,22,19,16,4.50
2016,11,22,19,17,4.50
2016,11,22,19,18,4.50
2016,11,22,19,19,4.50
2016,11,22,19,20,4.50
2016,11,22,19,21,4.50
2016,11,22,19,22,4.50
2016,11,22,19,23,4.50
2016,11,22,19,24,4.50
2016,11,22,19,25,4.50
2016,11,22,19,26,4.50
2016,11,22,19,27,4.50
2016,11,22,19,28,4.50
2016,11,22,19,29,4.50
2016,11,22,19,30,4.50
2016,11,22,19,31,4.50
2016,11,22,19,32,4.50
2016,11,22,19,33,4.50
2016,11,22,19,34,4.50
2016,11,22,19,35,4.50
2016,11,22,19,36,4.40
2016,11,22,19,37,4.40
2016,11,22,19,38,4.40
2016,11,22,19,39,4.40
2016,11,22,19,40,4.40
2016,11,22,19,41,4.40
2016,11,22,19,42,4.40
2016,11,22,19,43,4.50
2016,11,22,19,44,4.50
2016,11,22,19,45,4.40
2016,11,22,19,46,4.40
2016,11,22,19,47,4.50
2016,11,22,19,48,4.50
2016,11,22,19,49,4.50
2016,11,22,19,50,4.50
2016,11,22,19,51,4.60
2016,11,22,19,52,4.60
2016,11,22,19,53,4.60
2016,11,22,19,54,4.60
2016,11,22,19,55,4.60
2016,11,22,19,56,4.60
2016,11,22,19,57,4.60
2016,11,22,19,58,4.60
2016,11,22,19,59,4.60
2016,11,22,20,00,4.60
2016,11,22,20,01,4.70
2016,11,22,20,02,4.70
2016,11,22,20,03,4.70
2016,11,22,20,04,4.70
2016,11,22,20,05,4.70
2016,11,22,20,06,4.70
2016,11,22,20,07,4.70
2016,11,22,20,08,4.70
2016,11,22,20,09,4.70
2016,11,22,20,10,4.70
2016,11,22,20,11,4.70
2016,11,22,20,12,4.70
2016,11,22,20,13,4.70
2016,11,22,20,14,4.60
2016,11,22,20,15,4.60
2016,11,22,20,16,4.60
2016,11,22,20,17,4.60
2016,11,22,20,18,4.60
2016,11,22,20,19,4.60
2016,11,22,20,20,4.60
2016,11,22,20,21,4.60
2016,11,22,20,22,4.70
2016,11,22,20,23,4.70
2016,11,22,20,24,4.70
2016,11,22,20,25,4.70
2016,11,22,20,26,4.70
2016,11,22,20,27,4.70
2016,11,22,20,28,4.70
2016,11,22,20,29,4.70
2016,11,22,20,30,4.70
2016,11,22,20,31,4.70
2016,11,22,20,32,4.70
2016,11,22,20,33,4.70
2016,11,22,20,34,4.70
2016,11,22,20,35,4.70
2016,11,22,20,36,4.70
2016,11,22,20,37,4.70
2016,11,22,20,38,4.70
2016,11,22,20,39,4.70
2016,11,22,20,40,4.70
2016,11,22,20,41,4.70
2016,11,22,20,42,4.70
2016,11,22,20,43,4.70
2016,11,22,20,44,4.70
2016,11,22,20,45,4.70
2016,11,22,20,46,4.70
2016,11,22,20,47,4.70
2016,11,22,20,48,4.70
2016,11,22,20,49,4.70
2016,11,22,20,50,4.70
2016,11,22,20,51,4.70
2016,11,22,20,52,4.70
2016,11,22,20,53,4.70
2016,11,22,20,54,4.70
2016,11,22,20,55,4.70
2016,11,22,20,56,4.70
2016,11,22,20,57,4.70
2016,11,22,20,58,4.70
2016,11,22,20,59,4.70
2016,11,22,21,00,4.70
2016,11,22,21,01,4.70
2016,11,22,21,02,4.70
2016,11,22,21,03,4.70
2016,11,22,21,04,4.70
2016,11,22,21,05,4.70
2016,11,22,21,06,4.70
2016,11,22,21,07,4.70
2016,11,22,21,08,4.70
2016,11,22,21,09,4.70
2016,11,22,21,10,4.70
2016,11,22,21,11,4.70
2016,11,22,21,12,4.70
2016,11,22,21,13,4.70
2016,11,22,21,14,4.70
2016,11,22,21,15,4.70
2016,11,22,21,16,4.70
2016,11,22,21,17,4.70
2016,11,22,21,18,4.70
2016,11,22,21,19,4.70
2016,11,22,21,20,4.70
2016,11,22,21,21,4.60
2016,11,22,21,22,4.60
2016,11,22,21,23,4.60
2016,11,22,21,24,4.60